Visibility
15.0 15.0 15.0 15.0 15.0 15.0 15.0 15.0 15.0 15.0 15.0 15.0 15.0 15.0 15.0 15.0 15.0 15.0 15.0 15.0 15.0 15.0 15.0 15.0 15.0 15.0 15.0 15.0 15.0 15.0 15.0 15.0 15.0 15.0 15.0 15.0 15.0 11.4 12.0 3.9 1.8 11.8 9.5 10.4
15.0 15.0 15.0 15.0 15.0 15.0 15.0 15.0 15.0 15.0 15.0 15.0 15.0 15.0 15.0 15.0 15.0 15.0 15.0 15.0 15.0 15.0 15.0 15.0 15.0 15.0 15.0 15.0 15.0 15.0 15.0 15.0 15.0 15.0 15.0 7.1 14.5 13.8 15.0 2.4 2.2 0.5 12.9 13.9
15.0 15.0 15.0 15.0 15.0 15.0 15.0 15.0 15.0 15.0 15.0 15.0 15.0 15.0 15.0 15.0 15.0 15.0 15.0 15.0 15.0 15.0 15.0 15.0 15.0 15.0 15.0 15.0 15.0 15.0 15.0 15.0 15.0 15.0 15.0 15.0 15.0 6.4 3.8 3.0 1.6 2.9 1.4 14.5
15.0 15.0 15.0 15.0 15.0 15.0 15.0 15.0 15.0 15.0 15.0 15.0 15.0 15.0 15.0 15.0 15.0 15.0 15.0 15.0 15.0 15.0 15.0 15.0 15.0 15.0 15.0 15.0 15.0 15.0 15.0 15.0 15.0 15.0 15.0 15.0 15.0 15.0 4.8 6.5 2.0 2.3 0.3 8.8
15.0 15.0 15.0 15.0 15.0 15.0 15.0 15.0 15.0 15.0 15.0 15.0 15.0 15.0 15.0 15.0 15.0 15.0 15.0 15.0 15.0 15.0 15.0 15.0 15.0 15.0 15.0 15.0 15.0 15.0 15.0 15.0 15.0 15.0 15.0 15.0 15.0 14.2 3.4 4.3 2.6 2.2 3.0 3.6
15.0 15.0 15.0 15.0 15.0 15.0 15.0 15.0 15.0 15.0 15.0 15.0 15.0 15.0 15.0 15.0 15.0 15.0 15.0 15.0 15.0 15.0 15.0 15.0 15.0 15.0 15.0 15.0 15.0 15.0 15.0 15.0 15.0 15.0 15.0 15.0 15.0 15.0 6.9 3.0 2.7 1.9 2.3 7.4
15.0 15.0 15.0 15.0 15.0 15.0 15.0 15.0 15.0 15.0 15.0 15.0 15.0 15.0 15.0 15.0 15.0 15.0 15.0 15.0 15.0 15.0 15.0 15.0 15.0 15.0 15.0 15.0 15.0 15.0 15.0 15.0 15.0 15.0 15.0 15.0 15.0 15.0 7.9 2.4 2.7 4.2 1.1 2.7
15.0 15.0 15.0 15.0 15.0 15.0 15.0 15.0 15.0 15.0 15.0 15.0 15.0 15.0 15.0 15.0 15.0 15.0 15.0 15.0 15.0 15.0 15.0 15.0 15.0 15.0 15.0 15.0 15.0 15.0 15.0 15.0 15.0 15.0 15.0 15.0 15.0 15.0 14.9 3.0 3.9 2.6 2.2 2.1
15.0 15.0 15.0 15.0 15.0 15.0 15.0 15.0 15.0 4.2 15.0 0.5 15.0 15.0 15.0 15.0 15.0 15.0 15.0 15.0 15.0 15.0 15.0 15.0 15.0 15.0 15.0 15.0 15.0 15.0 15.0 15.0 15.0 15.0 15.0 15.0 15.0 15.0 15.0 2.8 3.9 5.1 2.2 1.6
15.0 10.7 15.0 15.0 15.0 15.0 15.0 15.0 15.0 15.0 1.6 10.2 15.0 15.0 15.0 15.0 15.0 15.0 15.0 15.0 15.0 15.0 15.0 15.0 15.0 15.0 15.0 15.0 14.0 15.0 15.0 15.0 15.0 15.0 15.0 15.0 15.0 15.0 15.0 5.8 3.6 3.2 3.3 7.8
15.0 5.6 15.0 15.0 15.0 15.0 13.4 15.0 12.6 5.4 15.0 3.1 15.0 15.0 15.0 15.0 15.0 15.0 15.0 15.0 15.0 15.0 15.0 14.2 9.4 15.0 13.3 15.0 15.0 15.0 15.0 15.0 15.0 15.0 15.0 15.0 15.0 15.0 15.0 6.3 3.5 5.5 2.9 9.0
15.0 5.6 5.3 15.0 15.0 15.0 14.8 14.7 15.0 0.8 6.6 8.6 1.3 11.1 15.0 15.0 15.0 15.0 15.0 15.0 15.0 14.7 14.7 15.0 15.0 8.5 15.0 15.0 15.0 15.0 14.9 15.0 15.0 15.0 15.0 15.0 15.0 15.0 15.0 14.9 4.9 5.9 2.5 4.1
15.0 10.6 15.0 15.0 1.0 15.0 11.7 15.0 14.1 0.8 0.8 5.2 1.7 12.2 15.0 15.0 15.0 15.0 15.0 15.0 15.0 15.0 15.0 14.8 2.6 4.3 13.5 14.6 12.7 14.8 15.0 15.0 15.0 15.0 15.0 15.0 15.0 15.0 15.0 15.0 7.9 4.5 4.6 2.9
12.5 15.0 15.0 15.0 15.0 15.0 15.0 15.0 15.0 1.9 0.3 14.8 13.1 15.0 15.0 15.0 15.0 15.0 14.7 1.8 13.8 15.0 15.0 0.2 0.9 4.3 5.7 10.4 10.5 14.1 15.0 15.0 14.8 15.0 15.0 15.0 15.0 15.0 15.0 15.0 14.0 8.5 4.3 8.2
15.0 15.0 15.0 15.0 15.0 15.0 15.0 13.3 15.0 1.5 14.8 3.9 15.0 15.0 15.0 15.0 15.0 0.8 0.2 0.5 15.0 2.0 0.2 0.4 0.3 0.6 5.6 7.7 11.8 15.0 15.0 15.0 14.3 15.0 15.0 15.0 15.0 15.0 15.0 15.0 12.1 9.0 3.0 4.8
15.0 11.9 12.6 15.0 15.0 15.0 15.0 15.0 15.0 15.0 15.0 15.0 15.0 15.0 15.0 15.0 15.0 0.7 0.4 15.0 0.2 0.1 0.3 0.2 0.3 0.7 4.1 5.1 11.3 14.7 15.0 15.0 13.0 15.0 15.0 15.0 15.0 15.0 15.0 15.0 15.0 8.3 15.0 4.0
15.0 13.9 13.7 15.0 15.0 15.0 13.4 15.0 15.0 15.0 15.0 15.0 0.5 15.0 15.0 6.0 3.4 0.9 0.4 0.2 0.1 0.1 0.1 0.1 0.1 0.1 0.2 0.5 14.1 15.0 15.0 15.0 15.0 15.0 15.0 15.0 15.0 15.0 15.0 15.0 4.9 5.4 13.1 3.7
15.0 12.2 11.0 15.0 15.0 15.0 15.0 15.0 15.0 15.0 15.0 15.0 15.0 15.0 15.0 10.6 15.0 15.0 0.9 0.1 0.1 0.1 0.1 0.1 0.1 0.2 0.4 0.3 0.3 1.4 15.0 15.0 13.5 15.0 15.0 15.0 15.0 15.0 15.0 15.0 15.0 12.6 15.0 12.1
15.0 15.0 15.0 15.0 15.0 15.0 15.0 15.0 15.0 9.6 4.4 15.0 15.0 15.0 15.0 15.0 4.4 15.0 15.0 3.7 0.1 0.1 0.1 0.1 0.1 0.1 0.1 0.1 0.3 0.1 13.3 15.0 15.0 15.0 15.0 15.0 15.0 15.0 15.0 15.0 15.0 15.0 9.6 3.5
15.0 15.0 15.0 15.0 15.0 15.0 15.0 15.0 15.0 15.0 3.8 15.0 15.0 12.4 0.3 0.3 0.1 1.3 2.0 0.2 0.1 0.2 0.1 0.1 0.1 0.1 0.1 0.2 15.0 13.4 9.9 15.0 15.0 15.0 15.0 15.0 15.0 15.0 15.0 15.0 6.1 10.1 12.0 5.6
15.0 15.0 15.0 15.0 15.0 15.0 15.0 15.0 15.0 15.0 15.0 15.0 15.0 2.2 0.2 0.1 0.9 1.4 0.2 0.2 0.2 0.2 0.1 0.2 0.1 0.1 0.6 10.3 15.0 15.0 15.0 15.0 15.0 15.0 15.0 15.0 15.0 15.0 15.0 10.8 10.0 8.2 5.1 3.9
15.0 15.0 15.0 15.0 15.0 15.0 15.0 15.0 15.0 15.0 15.0 15.0 15.0 6.6 0.1 1.9 15.0 5.1 1.2 0.1 0.1 0.1 0.1 0.1 0.2 0.2 0.3 2.4 7.8 15.0 15.0 15.0 15.0 7.1 4.4 9.2 14.2 8.9 3.8 3.9 13.9 14.3 13.8 10.6
15.0 15.0 15.0 15.0 15.0 15.0 15.0 15.0 15.0 15.0 15.0 15.0 10.7 11.9 0.4 0.2 9.4 13.7 3.3 1.7 0.1 0.1 0.1 0.1 0.1 0.1 0.1 0.1 0.1 0.1 0.2 7.8 2.5 0.7 0.2 0.1 2.7 7.6 13.4 15.0 14.3 1.9 14.9 15.0
15.0 15.0 15.0 15.0 15.0 15.0 15.0 15.0 15.0 15.0 15.0 15.0 15.0 12.1 6.5 0.2 2.0 9.0 14.7 1.9 1.1 0.2 0.1 0.1 0.1 0.1 0.1 0.1 0.2 0.2 0.1 0.2 0.2 0.1 0.0 0.1 0.0 0.0 0.2 2.8 12.9 2.9 7.5 0.5
15.0 15.0 15.0 15.0 15.0 15.0 15.0 15.0 15.0 15.0 15.0 15.0 15.0 15.0 8.3 1.1 4.8 0.6 6.6 1.3 0.5 0.4 0.1 0.1 0.1 0.1 0.1 0.3 0.5 0.3 0.1 0.1 0.0 0.0 0.0 0.0 0.0 0.0 0.0 0.0 0.1 14.2 11.7 15.0
15.0 15.0 15.0 15.0 15.0 15.0 15.0 15.0 15.0 15.0 15.0 15.0 4.8 4.0 15.0 12.3 2.1 0.6 1.1 12.5 0.1 0.1 0.2 0.2 0.2 0.3 0.3 0.1 0.3 1.2 2.5 0.1 0.1 0.0 0.0 0.0 0.0 0.0 0.0 0.0 0.0 4.2 10.7 15.0